Regional Weather Roundup
Issued by NWS

Home | Current Version | Previous Version | Text Only | Print | Product List | Glossary Off
Versions: 1 2 3 4 5 6 7 8 9 10 11 12 13 14 15 16 17 18 19 20 21 22 23 24 25 26 27 28 29 30 31 32 33 34 35 36 37 38 39 40 41 42 43 44 45 46 47 48 49 50

000
ASUS43 KOAX 190110
RWRNE

WEATHER ROUNDUP FOR NEBRASKA
NATIONAL WEATHER SERVICE OMAHA NE
800 PM CDT FRI APR 18 2014

NOTES: SATELLITE DATA IS BEING USED TO AUGMENT CLOUD COVER ABOVE
       12000 FEET.
       "FAIR" INDICATES FEW OR NO CLOUDS BELOW 12,000 FEET WITH NO
       SIGNIFICANT WEATHER AND/OR OBSTRUCTIONS TO VISIBILITY.

  * THESE STATIONS DO NOT REPORT WEATHER SUCH AS RAIN...SNOW OR FOG.

NEZ001>004-019>022-054>056-190200-
NEBRASKA PANHANDLE

CITY           SKY/WX    TMP DP  RH WIND       PRES   REMARKS
SCOTTSBLUFF    MOCLDY    75  30  19 S15       29.74F
ALLIANCE       MOCLDY    71  31  22 S18G25    29.75F
CHADRON        CLOUDY    75  36  24 S16       29.64F
KIMBALL        CLOUDY    67  26  21 S12       29.83S
SIDNEY         MOCLDY    70  31  23 S13       29.84S
$$

NEZ057>060-069>072-079>082-190200-
SOUTHWEST NEBRASKA

CITY           SKY/WX    TMP DP  RH WIND       PRES   REMARKS
NORTH PLATTE   PTCLDY    67  43  41 SE9G25    29.88R
IMPERIAL       CLEAR     70  41  34 S20       29.86R
LEXINGTON      PTCLDY    67  43  41 S20G25    29.92S
MCCOOK         PTCLDY    67  44  43 S17G25    29.92R
OGALLALA       PTCLDY    72  35  26 S14G20    29.84S
$$

NEZ005>010-023>029-035>040-094-190200-
NORTH CENTRAL NEBRASKA

CITY           SKY/WX    TMP DP  RH WIND       PRES   REMARKS
VALENTINE      CLOUDY    69  40  34 S28G37    29.74F
AINSWORTH      MOCLDY    67  41  39 S22G28    29.81S
BROKEN BOW     PTCLDY    65  43  44 S16       29.91S
O`NEILL        CLOUDY    67  38  34 S25G31    29.88S
ORD            MOCLDY    66  41  40 S15G26    29.91F
THEDFORD       CLOUDY    70  39  33 S22G32    29.84F
$$

NEZ041-046>049-061>064-073>077-083>087-190200-
SOUTH CENTRAL NEBRASKA

CITY           SKY/WX    TMP DP  RH WIND       PRES   REMARKS
GRAND ISLAND   CLOUDY    66  42  41 S18       29.98F
AURORA         CLOUDY    67  42  40 S16G25    30.00S
HASTINGS       MOCLDY    66  40  38 S10       29.99R
HEBRON         CLOUDY    67  40  37 S14G22    30.04S
HOLDREGE       PTCLDY    66  41  41 S18G24    29.96S
KEARNEY *      MOCLDY    64  41  42 S21       29.97S
YORK           CLOUDY    64  41  42 S15       30.01F
$$

NEZ011>018-030>034-042>045-190200-
NORTHEAST NEBRASKA

CITY           SKY/WX    TMP DP  RH WIND       PRES   REMARKS
NORFOLK        CLOUDY    64  40  41 S21       29.97F
ALBION         CLOUDY    65  40  40 S23G29    29.96S
BLAIR          PTCLDY    64  37  37 S15       30.07R
COLUMBUS *     CLOUDY    63  39  42 S13       30.02S
FREMONT        MOCLDY    64  37  36 SE14      30.05S
TEKAMAH        MOCLDY    64  38  38 S15       30.05S
$$

NEZ050>053-065>068-078-088>093-190200-
SOUTHEAST NEBRASKA

CITY           SKY/WX    TMP DP  RH WIND       PRES   REMARKS
LINCOLN        MOCLDY    65  39  38 SE15      30.06S
OMAHA EPPLEY   MOCLDY    65  38  36 S14       30.07F
BEATRICE       MOCLDY    65  38  37 SE13      30.07S
NEBRASKA CITY  CLEAR     62  39  43 S13       30.11R
PLATTSMOUTH    PTCLDY    63  36  35 S10       30.10R
$$

NEZ044-045-051>053-067-190200-
OMAHA AREA

CITY           SKY/WX    TMP DP  RH WIND       PRES   REMARKS
OMAHA EPPLEY   MOCLDY    65  38  36 S14       30.07F
BLAIR          PTCLDY    64  37  37 S15       30.07R
FREMONT        MOCLDY    64  37  36 SE14      30.05S
MILLARD        PTCLDY    64  39  39 SE10      30.07S
OFFUTT AFB     PTCLDY    63  40  42 SE10      30.08S
PLATTSMOUTH    PTCLDY    63  36  35 S10       30.10R
WAHOO          FAIR      63  36  37 SE15      30.05F
$$



USA.gov is the U.S. government's official web portal to all federal, state and local government web resources and services.